User: anonymous   Login
Location: Unspecified
(0.0000°N, 0.0000°E)
Time: 15:12:43
(UTC+01:00)
Language:

JASON 3 - Orbit

View from above orbital plane
View from above orbital plane
View from above satellite
View from above satellite

Ground track
Ground track

The orbit data is extracted from the following two-line orbital elements,

1 41240U 16002A   18345.87235473 -.00000036 +00000-0 +11052-3 0  9992
2 41240 066.0425 074.9691 0007493 268.8390 091.1767 12.80931206135654
Epoch (UTC): 11 December 2018 20:56:11
Eccentricity: 0.0007493
inclination: 66.0425°
perigee height: 1332 km
apogee height: 1343 km
right ascension of ascending node: 74.9691°
argument of perigee: 268.8390°
revolutions per day: 12.80931206
mean anomaly at epoch: 91.1767°
orbit number at epoch: 13565

The dashed part of the orbit path shows where the satellite is in the earth's shadow,  

DLR